Weather History for Gallup, NM

Change the Weather History Date:

Wednesday, September 18, 2013

  Actual Average Record
Temperature  
Mean Temperature 68 °F -  
Max Temperature 82 °F 75 °F 88 °F (1980)
Min Temperature 55 °F 40 °F 21 °F (2006)
Cooling Degree Days 4    
Growing Degree Days 18 (Base 50)    
Moisture  
Dew Point 50 °F    
Average Humidity 57    
Maximum Humidity 87    
Minimum Humidity 25    
Precipitation  
Precipitation 0.00 in - - ()
Sea Level Pressure  
Sea Level Pressure 29.62 in    
Wind  
Wind Speed 6 mph (SSW)    
Max Wind Speed 18 mph    
Max Gust Speed 28 mph    
Visibility 10 miles    
Events      
Averages and records for this station are not official NWS values.
T = Trace of Precipitation, MM = Missing Value Source: NWS Daily Summary

Daily Weather History Graph

Daily Weather History Graph

Search for Another Location

Airport:

Trip Planner

Search our weather history database for the weather conditions in past years. The results will help you decide how hot, cold, wet, or windy it might be!

Date:

Astronomy

Sep. 18, 2013 Rise Set
Actual Time 7:00 AM MDT 7:17 PM MDT
Civil Twilight 6:34 AM MDT 7:42 PM MDT
Nautical Twilight 6:05 AM MDT 8:12 PM MDT
Astronomical Twilight 5:34 AM MDT 8:42 PM MDT
Moon 6:43 PM MDT (9/18) 6:06 AM MDT (9/18)
Length of Visible Light 13h 07m
Length of Day
12h 17m
Waxing Gibbous, 99% of the Moon is Illuminated
Sep 18
Waxing Gibbous
Sep 19
Full
Sep 26
Last Quarter
Oct 4
New
Oct 11
First Quarter

Hourly Weather History & Observations

Time (MDT) Temp. Dew Point Humidity Pressure Visibility Wind Dir Wind Speed Gust Speed Precip Events Conditions
12:53 AM 60.1 °F 48.9 °F 67% 29.65 in 10.0 mi SSE 4.6 mph - N/A   Clear
1:53 AM 60.1 °F 48.9 °F 67% 29.64 in 10.0 mi Calm Calm - N/A   Clear
2:53 AM 57.0 °F 50.0 °F 77% 29.65 in 10.0 mi Calm Calm - N/A   Clear
3:53 AM 59.0 °F 52.0 °F 78% 29.61 in 10.0 mi South 4.6 mph - N/A   Clear
4:53 AM 57.9 °F 51.1 °F 78% 29.61 in 10.0 mi SW 4.6 mph - N/A   Clear
5:53 AM 59.0 °F 52.0 °F 78% 29.60 in 10.0 mi Calm Calm - N/A   Clear
6:53 AM 55.9 °F 51.1 °F 84% 29.68 in 10.0 mi Calm Calm - N/A   Mostly Cloudy
7:53 AM 55.9 °F 52.0 °F 87% 29.75 in 10.0 mi Calm Calm - N/A   Scattered Clouds
8:53 AM 62.1 °F 53.1 °F 72% 29.73 in 10.0 mi Calm Calm - N/A   Clear
9:53 AM 69.1 °F 54.0 °F 58% 29.69 in 10.0 mi SSW 9.2 mph - N/A   Clear
10:53 AM 73.0 °F 54.0 °F 51% 29.67 in 10.0 mi SW 11.5 mph - N/A   Mostly Cloudy
11:53 AM 75.9 °F 53.1 °F 45% 29.63 in 10.0 mi WSW 12.7 mph 19.6 mph N/A   Partly Cloudy
12:53 PM 79.0 °F 51.1 °F 38% 29.59 in 10.0 mi SW 16.1 mph 21.9 mph N/A   Partly Cloudy
1:53 PM 79.0 °F 48.9 °F 35% 29.57 in 10.0 mi SW 18.4 mph 25.3 mph N/A   Mostly Cloudy
2:53 PM 80.1 °F 45.0 °F 29% 29.56 in 10.0 mi West 12.7 mph 27.6 mph N/A   Scattered Clouds
3:53 PM 82.0 °F 43.0 °F 25% 29.51 in 10.0 mi WSW 13.8 mph 21.9 mph N/A   Partly Cloudy
4:53 PM 81.0 °F 43.0 °F 26% 29.51 in 10.0 mi SW 18.4 mph 23.0 mph N/A   Scattered Clouds
5:53 PM 75.9 °F 48.9 °F 38% 29.54 in 10.0 mi SSW 12.7 mph - N/A   Clear
6:53 PM 72.0 °F 53.1 °F 51% 29.60 in 10.0 mi South 10.4 mph - N/A   Scattered Clouds
7:53 PM 70.0 °F 52.0 °F 53% 29.63 in 10.0 mi South 8.1 mph - N/A   Overcast
8:53 PM 68.0 °F 52.0 °F 56% 29.64 in 10.0 mi SSW 9.2 mph - N/A   Mostly Cloudy
9:53 PM 64.9 °F 51.1 °F 61% 29.62 in 10.0 mi South 6.9 mph - N/A   Mostly Cloudy
10:53 PM 62.1 °F 46.9 °F 58% 29.62 in 10.0 mi Calm Calm - N/A   Partly Cloudy
11:53 PM 61.0 °F 45.0 °F 56% 29.61 in 10.0 mi Calm Calm - N/A   Clear